Regional Weather Roundup
Issued by NWS

Home | Current Version | Previous Version | Graphics & Text | Print | Product List | Glossary On
Versions: 1 2 3 4 5 6 7 8 9 10 11 12 13 14 15 16 17 18 19 20 21 22 23 24 25 26 27 28 29 30 31 32 33 34 35 36 37 38 39 40 41 42 43 44 45 46 47 48 49 50
000
ASUS44 KMEG 211310
RWRTN
TENNESSEE HOURLY STATE WEATHER ROUNDUP
NATIONAL WEATHER SERVICE MEMPHIS TN
800 AM CDT SAT APR 21 2018

TNZ002-004-019-021-049-052-054-088>092-211400-
WEST TENNESSEE

CITY           SKY/WX    TMP DP  RH WIND       PRES   REMARKS
MEMPHIS INTL   FAIR      54  35  48 E8        30.24R
NWS MEMPHIS      N/A     52 N/A N/A MISG        N/A
JACKSON        FAIR      53  34  48 E6        30.29R
DYERSBURG      FAIR      51  36  56 E5        30.30R
SOMERVILLE     SUNNY     54  36  50 CALM      30.25S
COVINGTON      SUNNY     52  37  58 E6        30.28S
UNION CITY     SUNNY     50  34  53 E5        30.30R
BOLIVAR        SUNNY     50  36  57 E3G12     30.27S
PARIS          SUNNY     52  32  46 E9        30.31R
HUNTINGDON     SUNNY     50  34  53 MISG      30.30R
LEXINGTON      SUNNY     46  39  76 CALM      30.30R
SELMER         SUNNY     50  34  53 E6        30.28R
SAVANNAH       SUNNY     48  39  71 CALM      30.29S
$$

TNZ008-025-027-028-033-062-065-066-211400-
NORTH MIDDLE TENNESSEE

CITY           SKY/WX    TMP DP  RH WIND       PRES   REMARKS
NASHVILLE      FAIR      48  37  65 CALM      30.34R
PORTLAND       SUNNY     52  30  43 VRB6      30.33R
CLARKSVILLE    FAIR      49  32  52 E8        30.32S
SMYRNA         FAIR      47  37  68 CALM      30.34S
COOKEVILLE     SUNNY     52  36  54 CALM      30.32S
LIVINGSTON     SUNNY     52  25  35 E6        30.33R
GALLATIN       SUNNY     52  30  43 E3        30.37R
CROSSVILLE     FAIR      51  24  34 SE7       30.35R
ROCKWOOD       SUNNY     52  21  30 SE7       30.35R
$$

TNZ061-075-076-078-094-096-097-211400-
SOUTH MIDDLE TENNESSEE

CITY           SKY/WX    TMP DP  RH WIND       PRES   REMARKS
LEWISBURG      SUNNY     48  37  66 E3        30.32S
FAYETTEVILLE   SUNNY     54  36  50 E5        30.30S
TULLAHOMA      SUNNY     52  32  46 SE7       30.32R
WINCHESTER     SUNNY     55  34  44 E6        30.32R
MCMINNVILLE    SUNNY     50  36  57 CALM      30.33R
COLUMBIA       SUNNY     45  45 100 CALM      30.30F
SHELBYVILLE    SUNNY     48  37  66 CALM      30.33R
$$

TNZ017-018-042-046-047-211400-
NORTHEAST TENNESSEE

CITY           SKY/WX    TMP DP  RH WIND       PRES   REMARKS
TRI CITIES     FAIR      46  30  53 CALM      30.39S
ELIZABETHTON   FAIR      54  28  37 E6        30.39F
$$

TNZ012-013-036-069-073-074-211400-
CENTRAL EAST TENNESSEE

CITY           SKY/WX    TMP DP  RH WIND       PRES   REMARKS
KNOXVILLE      FAIR      50  29  44 NE13      30.35S
OAK RIDGE      FAIR      51  36  56 CALM      30.37S
DOWNTOWN KNOXV SUNNY     48  39  71 CALM      30.37S
GATLINBURG     SUNNY     45  34  65 CALM      30.36S
MORRISTOWN     SUNNY     50  25  37 E6        30.36R
JACKSBORO      SUNNY     45  37  76 CALM      30.41S
$$

TNZ083-085-099-211400-
SOUTHEAST TENNESSEE

CITY           SKY/WX    TMP DP  RH WIND       PRES   REMARKS
CHATTANOOGA    FAIR      48  39  71 CALM      30.36R
DAYTON         SUNNY     50  39  66 N5        30.35R
$$

SKY/WX REPORTED AS FAIR MEANS FEW OR NO CLOUDS BELOW
12 THOUSAND FEET.





USA.gov is the U.S. government's official web portal to all federal, state and local government web resources and services.